Regional Weather Roundup
Issued by NWS Kansas City/Pleasant Hill, MO

Home | Current Version | Previous Version | Text Only | Print | Product List | Glossary On
Versions: 1 2 3 4 5 6 7 8 9 10 11 12 13 14 15 16 17 18 19 20 21 22 23 24 25 26 27 28 29 30 31 32 33 34 35 36 37 38 39 40 41 42 43 44 45 46 47 48 49 50
000
ASUS43 KEAX 261611
RWREAX

WEATHER ROUNDUP FOR EASTERN KANSAS AND NORTHWEST MISSOURI
NATIONAL WEATHER SERVICE KANSAS CITY/PLEASANT HILL MO
1100 AM CDT SUN APR 26 2015

KSZ040-057-103>105-MOZ028-029-037-043-261700-
...KANSAS CITY METROPOLITAN AREA...

CITY           SKY/WX    TMP DP  RH WIND       PRES   REMARKS
K.C. INTL      CLOUDY    50  42  74 E14       29.99R
K.C. DOWNTOWN  CLOUDY    51  42  71 E10       29.98R
LEES SUMMIT    CLOUDY    49  41  74 NE14      29.99R
OLATHE - IXD   CLOUDY    50  43  77 NE13      29.98R
OLATHE - OJC   CLOUDY    50  43  77 NE13      29.96R
LAWRENCE       CLOUDY    51  43  74 E13       29.98R

$$

MOZ001>008-011>017-020>025-030>033-038>040-044>046-053-054-261700-
...NORTHERN AND CENTRAL MISSOURI...

CITY           SKY/WX    TMP DP  RH WIND       PRES   REMARKS
ST. JOSEPH     CLOUDY    50  41  71 E13       30.02R
MOSBY          CLOUDY    50  41  71 E12       30.00R
WARRENSBURG    CLOUDY    50  43  76 E8        29.99R
WHITEMAN AFB   CLOUDY    49  44  83 E8        29.97R
CLINTON        CLOUDY    52  45  76 NE13      29.97R
SEDALIA        CLOUDY    49  43  80 NE12      29.99R
WARSAW         NOT AVBL
CHILLICOTHE      N/A     55  39  54 E12       30.02R
MOBERLY        SUNNY     54  39  58 NE12G18   30.01R
KIRKSVILLE     SUNNY     54  39  57 NE9       30.02R

$$

MOZ041-047>049-056>058-063>065-088>090-097-261700-
...EASTERN AND SOUTHERN MISSOURI...

CITY           SKY/WX    TMP DP  RH WIND       PRES   REMARKS
ST. LOUIS INTL MOSUNNY   57  34  41 NE12      29.96R
SPIRIT OF STL  MOSUNNY   55  38  52 NE9       29.96R
COLUMBIA       PTSUNNY   53  44  71 NE13      29.97R
JEFFERSON CITY CLOUDY    53  42  66 NE10      29.97R
MEXICO         SUNNY     55  45  67 E13G18    29.98R
HANNIBAL       SUNNY     57  28  33 NE6       30.00S
ROLLA          CLOUDY    48  44  86 NE10      29.93S
LEBANON        CLOUDY    48  45  87 NE8       29.95R
OSAGE BEACH    CLOUDY    48  43  81 NE15      29.96R
SPRINGFIELD    CLOUDY    54  47  77 NE13      29.90R
BRANSON        CLOUDY    55  48  76 E8        29.89R
NEVADA         CLOUDY    52  46  82 NE15      29.95R
JOPLIN         CLOUDY    55  49  80 NE12      29.89S
WEST PLAINS    CLOUDY    49  44  83 NE9       29.92R

$$

IAZ060-094-KSZ022-034>040-054-083-096-NEZ052-066-093-261700-
...KANSAS...SOUTHEAST NEBRASKA AND IOWA...

CITY           SKY/WX    TMP DP  RH WIND       PRES   REMARKS
TOPEKA         CLOUDY    51  44  77 E12       29.98R
MANHATTAN      CLOUDY    50  46  86 E12       29.97R FOG
EMPORIA        CLOUDY    50  46  86 E13       29.93R
CHANUTE        CLOUDY    56  48  74 NE12      29.90S
WICHITA        DRIZZLE   53  48  83 E15       29.89R
OMAHA          PTSUNNY   52  40  63 E14       30.06R
LINCOLN        PTSUNNY   52  41  66 E14       30.05R
FALLS CITY     CLOUDY    49  41  74 E10       30.02R
LAMONI         SUNNY     54  36  50 E10G22    30.02R
DES MOINES     MOSUNNY   56  33  42 NE12      30.07R

$$



USA.gov is the U.S. government's official web portal to all federal, state and local government web resources and services.